Location: Caltech
(34.1382°N, 118.1253°W)
Time: 10:36:02
(UTC-07:00)

Cosmos 2251 Rocket - Visible Passes

Search period start: 19 April 2014 00:00
Search period end: 29 April 2014 00:00
Orbit: 767 x 792 km, 74.0° (Epoch: 17 April)

Date Brightness Start Highest point End Pass type
(mag) Time Alt. Az. Time Alt. Az. Time Alt. Az.
19 Apr 4.4 20:51:15 10° SSW 20:56:22 52° WNW 21:01:29 10° N visible
20 Apr 6.6 05:43:24 10° NNE 05:47:05 19° ENE 05:50:46 10° ESE visible
20 Apr 3.5 20:17:32 10° SSW 20:22:47 87° WNW 20:28:03 10° NNE visible
21 Apr 7.0 05:11:27 10° NE 05:13:14 12° ENE 05:15:01 10° E visible
21 Apr 3.6 19:44:10 10° S 19:49:17 56° ESE 19:54:24 10° NNE visible
21 Apr 6.6 21:28:56 10° W 21:31:56 15° WNW 21:34:56 10° NNW visible
22 Apr 6.0 20:53:55 10° WSW 20:58:08 24° WNW 21:02:22 10° N visible
23 Apr 5.2 05:43:59 10° N 05:48:56 40° ENE 05:53:51 10° SE visible
23 Apr 5.1 20:19:33 10° SW 20:24:26 39° WNW 20:29:20 10° N visible
24 Apr 6.1 05:10:56 10° N 05:15:13 25° ENE 05:19:30 10° ESE visible
25 Apr 6.8 04:38:21 10° NNE 04:41:26 16° ENE 04:44:31 10° E visible
25 Apr 7.1 20:58:28 10° WNW 21:00:07 11° WNW 21:01:47 10° NW visible
26 Apr 6.6 20:22:39 10° WSW 20:26:16 19° WNW 20:29:54 10° NNW visible
27 Apr 4.5 05:11:50 10° N 05:16:59 53° ENE 05:22:08 10° SSE visible
28 Apr 5.4 04:38:37 10° N 04:43:20 32° ENE 04:48:02 10° SE visible
